Location: Doux
(49.5045°N, 4.4321°E)
Time: 10:59:13
(UTC+00:00)

Geosat - Pass Details

Date: 23 May 2024
Orbit: 760 x 763 km, 108.1° (Epoch: 14 June)

Event Time Altitude Azimuth Distance (km) Brightness Sun altitude
Rises 02:24:48 0° 140° (SE) 3,214 7.1 -10.8°
Reaches altitude 10° 02:27:04 10° 138° (SE) 2,292 6.4 -10.6°
Maximum altitude 02:32:02 68° 56° (NE) 822 4.4 -10.0°
Drops below altitude 10° 02:37:01 10° 334° (NNW) 2,309 6.8 -9.5°
Sets 02:39:19 0° 332° (NNW) 3,239 7.5 -9.3°
